Theta_e
305 296 293 293 296 298 301 302 302 300 302 300 298 297 295 294 294 294 296 296 294 292 292 292 293 295 296 295 298 299 296 294 295 295 295 296 296 295 296 296 297 300 304 309 311 314 316 317 320 321 321 322 322 322 323 322 322 322 321 320 319 319 320 320 320 319 319 319 319 319 320 321 322 321 321 320 320 321 321 321 320 320 320 320 319 319
302 294 294 296 298 300 301 302 301 300 300 299 298 297 296 295 296 295 296 297 294 292 290 291 291 293 294 295 297 296 295 296 298 298 296 297 298 298 297 297 297 299 300 301 302 305 308 312 315 318 320 319 320 321 322 322 322 322 322 321 320 319 319 320 321 320 319 320 320 319 319 320 321 320 318 319 320 320 320 320 320 320 320 320 320 318
295 292 297 299 300 302 301 301 301 301 298 299 297 296 295 296 295 296 295 293 294 293 292 291 290 293 295 295 296 295 296 298 299 299 300 299 299 299 299 298 298 297 298 299 300 302 304 307 310 315 318 320 321 322 322 323 322 322 322 322 321 321 319 320 321 321 320 321 320 320 319 320 318 318 320 320 320 319 319 320 320 319 320 320 320 319
292 295 299 302 301 300 299 300 300 300 300 297 296 294 295 295 296 293 295 292 294 294 290 288 289 295 298 296 297 298 298 299 300 299 300 300 300 300 300 300 299 298 298 298 299 299 301 303 306 311 315 318 320 320 321 322 322 323 322 322 322 321 320 320 320 319 322 321 320 320 318 317 319 317 314 317 316 317 318 319 319 320 320 319 320 319
295 299 303 301 300 300 298 299 299 299 298 300 300 299 295 294 297 297 293 289 291 292 290 290 292 295 298 296 298 299 299 299 299 298 298 299 300 301 301 300 300 300 299 299 299 299 299 300 302 306 311 316 318 320 321 322 322 323 322 322 323 322 321 320 319 319 320 318 315 315 314 313 313 312 312 312 316 317 317 318 318 319 319 319 319 319
299 301 303 300 299 300 300 298 299 300 297 298 300 301 299 296 296 293 289 294 292 291 292 293 287 292 296 299 300 304 295 296 297 297 299 300 300 299 299 300 301 300 300 301 301 301 301 300 301 303 306 312 316 318 320 322 323 323 323 323 323 323 322 321 320 320 320 319 319 316 316 315 315 315 315 315 316 316 316 317 318 317 319 319 319 319
300 301 303 299 300 300 300 300 301 302 298 296 298 302 300 298 297 292 289 294 288 290 293 292 292 290 292 291 295 297 294 299 296 296 300 300 301 300 300 301 301 302 301 300 301 301 300 300 299 301 303 308 312 316 320 321 322 322 323 323 323 323 323 322 321 319 318 319 319 318 318 318 317 316 317 318 315 317 318 317 317 318 317 319 319 319
301 299 299 300 300 300 299 298 302 302 298 296 302 302 299 297 296 294 293 297 293 292 292 288 291 289 291 297 297 294 293 297 296 297 298 299 298 299 300 301 302 303 303 303 302 301 301 301 300 301 303 306 310 313 317 320 321 321 322 323 323 323 322 323 322 319 319 319 319 318 318 318 318 318 318 318 318 316 315 317 317 317 317 317 319 319
302 297 299 298 299 299 298 301 303 304 300 298 302 301 298 298 295 295 294 291 290 291 291 287 287 288 288 293 290 291 293 295 296 298 299 298 298 299 300 301 302 303 303 303 303 303 303 302 302 302 302 304 308 311 315 318 320 322 322 322 323 323 322 322 321 319 319 319 320 319 319 318 318 319 319 314 314 316 315 316 316 317 317 317 317 319
301 301 301 301 299 297 301 302 304 304 300 298 301 301 298 297 295 295 289 291 288 288 288 290 290 288 291 297 293 289 292 297 300 302 302 301 300 299 300 300 301 301 301 303 304 305 305 304 304 303 302 301 305 310 314 317 319 321 321 321 321 322 323 323 322 320 319 319 318 319 319 318 319 318 317 314 315 315 315 316 316 316 316 317 316 317
301 302 305 302 299 299 299 303 305 305 301 303 302 299 296 293 291 289 290 288 288 286 289 294 290 292 288 295 297 292 293 298 301 300 297 298 299 300 300 300 301 301 301 301 301 302 303 302 302 300 301 302 303 306 311 314 317 319 320 320 320 321 322 322 322 320 319 319 319 319 319 319 318 318 317 315 316 315 313 315 315 315 316 316 317 317
299 301 301 301 305 299 304 297 299 301 301 300 295 295 297 291 292 289 287 289 287 286 291 294 290 292 286 291 299 301 300 299 301 300 301 299 298 300 300 300 300 301 301 300 299 300 300 299 298 296 299 301 301 303 308 312 315 317 319 319 319 320 321 321 321 321 320 319 319 319 319 319 319 319 318 317 317 317 315 315 315 314 314 316 316 317
293 296 300 300 302 304 300 299 295 298 300 298 296 296 292 286 288 285 287 284 285 287 285 286 291 287 289 295 292 291 295 297 296 302 303 301 300 300 300 300 300 299 296 297 298 298 298 299 299 298 299 299 299 302 306 310 313 316 317 318 318 319 320 321 321 321 320 320 319 319 319 320 320 319 319 318 318 317 317 316 315 313 315 316 318 319
291 297 298 297 300 304 303 296 291 292 296 296 295 292 288 283 283 284 285 286 285 286 286 286 290 290 295 294 299 301 299 298 298 297 297 299 301 301 300 297 297 296 295 296 296 297 298 298 299 299 299 299 299 300 304 307 310 314 316 317 318 319 319 320 320 320 320 320 321 320 320 320 320 319 319 319 319 318 317 316 316 316 316 316 318 320
285 286 293 297 294 303 303 301 299 298 297 297 300 297 291 289 286 283 285 283 285 285 284 286 288 285 286 289 289 293 299 300 299 299 297 296 297 297 295 293 293 293 292 293 294 295 296 297 297 298 298 298 299 299 302 306 309 312 314 316 316 317 318 319 320 320 320 321 321 321 321 321 321 320 320 320 320 319 317 316 317 316 316 317 317 319
289 289 296 302 300 303 300 303 304 301 296 297 294 294 292 290 285 284 279 282 278 280 279 281 287 288 292 291 294 294 291 291 290 292 291 293 294 293 294 296 297 296 297 296 294 294 294 295 295 295 296 298 298 298 300 304 308 310 313 314 316 317 318 318 317 319 320 321 321 321 321 321 320 318 319 319 317 319 319 317 317 317 316 317 318 318
289 287 297 299 300 301 301 302 302 304 289 294 297 292 294 290 287 281 278 276 278 276 281 280 283 289 289 297 300 300 293 294 292 291 290 292 293 290 294 297 296 296 295 295 295 296 296 293 293 294 295 296 296 297 299 303 307 310 312 313 314 315 316 317 317 319 319 320 320 320 321 321 320 320 319 320 319 318 316 316 316 317 317 316 317 317
288 289 296 297 295 301 304 304 303 303 300 297 291 295 293 293 290 289 284 272 271 278 280 280 285 285 281 288 292 299 297 297 296 296 294 292 291 291 293 294 293 294 295 294 293 293 293 293 293 293 294 295 297 298 298 301 306 310 311 312 313 313 314 315 316 317 318 318 318 319 319 320 320 320 320 319 318 316 314 315 315 315 315 316 316 316
295 286 289 297 298 298 301 303 299 298 297 299 297 300 295 286 287 286 284 280 275 278 282 276 281 280 286 291 285 288 295 297 298 298 295 295 293 293 294 292 292 293 292 292 293 292 292 292 292 293 294 294 295 296 298 299 302 304 304 308 311 312 314 315 316 316 316 318 318 319 318 319 319 320 319 318 317 314 315 315 315 315 317 314 313 313
295 287 288 294 296 297 300 299 288 294 297 295 299 297 294 293 290 288 286 282 281 281 274 283 278 285 287 290 293 290 290 296 298 297 297 298 297 294 293 294 294 293 293 293 293 293 292 292 292 293 293 293 294 294 294 293 295 300 304 304 306 305 305 306 310 310 313 314 316 317 316 316 317 317 318 317 316 315 315 316 315 315 313 314 312 314
291 291 286 289 295 298 290 296 293 295 291 290 295 292 292 291 289 290 289 288 283 283 284 282 281 284 289 290 295 298 294 292 296 297 297 297 294 292 292 293 293 293 293 292 292 292 292 291 291 291 291 290 290 289 290 292 294 296 297 300 301 306 306 307 309 309 312 312 314 314 314 314 313 314 316 315 315 315 316 316 313 315 315 309 312 312
289 289 287 287 290 291 294 299 300 299 298 295 295 293 295 292 287 286 284 288 284 285 278 278 283 289 284 290 298 298 301 301 296 294 294 292 291 291 291 291 292 292 292 292 292 291 291 290 290 288 287 287 287 288 289 290 290 291 295 299 300 301 304 305 305 308 311 310 312 312 313 312 312 314 313 313 313 314 315 315 314 312 308 311 312 310
295 289 289 287 289 292 297 298 296 302 301 299 298 295 297 295 292 289 284 284 282 286 279 277 276 287 291 291 295 296 297 298 296 293 294 292 290 290 291 290 288 289 291 291 291 291 291 290 289 288 288 288 289 290 288 288 291 293 293 293 295 300 302 304 306 306 306 307 308 309 310 310 310 310 309 311 312 311 312 311 305 306 309 309 307 305
295 288 287 286 289 290 292 293 294 292 300 296 295 292 296 293 294 292 290 288 287 285 285 285 281 288 288 288 291 293 290 288 286 287 292 292 292 290 289 290 290 288 289 287 287 288 290 288 287 286 288 289 288 288 289 290 289 290 290 293 293 296 299 299 301 301 302 303 305 306 304 306 305 305 306 307 308 308 307 306 306 303 307 307 303 306
292 289 291 285 285 286 287 290 291 292 293 295 294 295 297 297 297 290 286 284 284 287 287 286 282 289 291 288 286 288 288 289 291 289 288 291 292 290 289 290 290 288 287 287 288 289 288 287 290 292 291 290 289 288 288 289 290 290 291 290 292 295 294 295 294 296 298 298 300 297 299 300 300 304 304 305 304 304 303 304 304 302 305 303 303 304
294 291 290 284 281 279 278 280 283 286 291 294 296 295 295 295 294 291 289 285 285 288 288 286 286 293 285 285 286 286 287 288 289 289 286 287 290 291 291 291 289 287 288 287 287 287 290 291 290 290 289 290 289 289 288 288 289 289 289 291 290 291 289 290 288 292 294 294 296 297 296 298 298 302 304 303 302 303 302 301 301 300 299 301 305 300
288 290 292 291 289 287 288 290 295 296 293 290 292 294 293 295 296 295 293 289 286 289 287 289 291 292 285 286 284 286 285 288 291 290 288 287 286 287 288 289 289 288 288 288 287 289 289 290 292 292 290 290 290 288 287 288 289 288 289 289 288 289 288 288 288 290 292 292 294 296 295 296 298 299 300 300 300 298 298 298 298 298 299 297 302 301
287 289 292 292 292 293 294 291 294 296 293 293 293 292 294 294 294 293 290 288 293 288 284 290 293 290 291 285 285 285 285 284 285 286 286 285 286 288 289 288 290 288 288 288 287 288 290 292 292 291 291 290 289 288 286 286 287 290 290 291 290 288 287 287 288 289 291 290 291 293 295 295 293 294 295 296 297 298 298 297 296 297 298 296 300 301
290 288 292 292 291 294 291 291 295 295 295 295 295 294 293 294 293 291 292 294 293 288 286 292 293 291 293 287 286 287 288 289 290 288 287 287 286 284 284 287 289 290 289 289 292 291 290 291 291 291 291 289 287 288 287 286 286 286 287 288 288 287 289 287 289 289 291 291 292 293 292 291 292 293 294 295 297 297 297 297 297 297 296 296 299 299
293 288 290 292 290 291 291 291 294 294 294 294 294 294 295 294 294 294 294 295 295 292 294 294 293 292 295 295 292 291 289 288 285 284 283 285 286 286 286 287 288 289 289 291 292 292 291 291 289 288 287 286 287 288 288 288 288 289 290 290 288 288 288 287 289 290 291 292 293 291 290 291 293 294 294 295 296 297 297 297 296 296 295 296 296 295
294 288 292 291 288 289 291 291 292 294 294 292 294 294 294 294 294 295 295 295 295 294 295 294 293 292 298 297 297 294 291 288 287 287 287 286 285 285 287 287 288 289 290 290 290 291 290 289 288 287 287 288 288 288 289 290 291 288 289 289 289 289 288 288 289 290 291 293 291 290 290 292 294 294 294 295 296 295 295 296 295 294 295 294 293 293
294 289 291 289 286 287 290 290 290 291 293 292 292 293 293 292 291 293 292 295 294 292 293 293 291 292 298 297 293 294 294 293 292 291 289 290 288 286 286 288 289 290 290 290 290 289 288 288 288 288 289 289 289 288 289 290 290 288 291 291 290 289 287 288 290 291 292 292 289 290 292 293 293 293 294 294 295 294 293 293 293 294 294 293 292 291
291 290 288 287 285 285 288 290 289 289 288 287 288 292 294 294 295 296 296 297 296 296 292 289 291 297 299 292 291 291 294 296 296 294 292 292 291 290 290 290 290 289 290 290 290 290 290 290 290 290 289 288 289 290 290 291 289 290 292 291 290 287 288 289 290 291 291 290 290 291 293 293 293 294 294 294 293 292 292 292 293 293 292 293 292 290
293 291 289 290 285 286 287 287 288 285 279 282 296 298 297 294 294 292 293 295 297 297 295 298 298 296 289 292 294 294 292 296 298 298 295 295 294 293 292 292 292 291 290 289 290 291 292 291 290 290 290 290 290 291 291 290 291 292 290 288 287 288 289 289 290 291 291 290 291 292 293 293 293 293 293 292 292 292 292 292 293 292 292 291 290 292
289 290 290 290 287 286 287 286 283 278 281 296 299 299 300 299 298 295 296 297 297 298 298 297 297 299 297 298 298 298 294 294 294 296 298 297 297 297 296 295 294 293 292 292 292 291 291 291 291 290 289 289 290 290 288 288 289 288 288 287 288 288 289 290 291 291 291 291 291 292 293 294 293 293 292 291 291 291 292 292 292 291 291 291 291 292
286 288 289 288 288 287 285 284 278 279 291 296 297 299 300 300 298 296 294 296 297 298 298 297 299 300 300 299 294 290 292 294 292 293 296 300 301 301 300 298 297 293 292 294 295 298 296 293 292 293 295 295 290 289 289 290 289 289 290 287 289 288 289 290 290 291 291 291 292 292 293 293 293 292 292 291 291 291 291 292 292 291 290 290 291 290
288 286 286 286 290 284 286 285 283 290 289 291 292 293 296 293 294 293 289 293 298 299 298 298 299 300 300 297 293 288 287 288 289 294 295 296 299 300 301 301 301 299 298 299 299 300 300 298 298 299 296 293 292 290 290 290 289 290 288 288 289 289 289 289 290 291 292 292 293 293 293 293 293 292 292 291 291 291 291 291 291 291 290 290 290 290
290 287 286 285 285 289 286 283 284 284 281 286 293 297 300 300 300 300 296 292 299 300 300 299 298 299 299 299 297 287 289 290 291 294 298 296 296 297 296 298 299 299 300 301 302 299 299 301 300 296 296 295 291 291 290 289 289 289 288 289 288 288 288 289 290 292 292 293 293 293 293 293 293 292 291 291 290 291 291 291 290 290 290 291 290 290
287 288 287 286 284 285 284 282 282 281 284 293 294 296 298 301 300 299 293 288 296 297 301 300 299 300 300 299 294 289 291 290 293 298 301 297 294 295 296 295 296 298 300 301 301 299 299 301 301 299 295 291 292 290 287 288 288 289 290 289 288 288 288 289 291 291 292 293 294 293 292 292 292 292 291 290 291 291 290 290 290 290 289 290 290 290
285 285 285 283 283 284 284 283 282 284 284 289 290 292 296 299 299 292 283 285 298 299 300 301 300 300 300 299 292 293 294 291 294 300 295 296 298 296 297 298 299 299 299 299 298 299 300 299 297 295 296 295 293 287 287 288 289 289 290 290 288 288 289 291 292 293 294 294 292 290 290 291 290 291 290 290 290 289 289 289 289 289 289 290 290 291
281 283 284 281 283 284 284 282 285 285 288 286 286 291 293 299 296 287 281 292 301 301 300 300 300 301 301 295 292 295 296 300 302 298 292 295 296 296 297 299 301 301 300 300 300 295 296 296 297 297 297 297 290 286 285 287 288 289 289 289 287 288 290 292 293 293 291 290 290 289 290 290 290 290 290 289 288 288 288 289 289 289 289 289 290 290
281 283 283 285 283 282 284 282 282 286 290 289 288 289 293 295 286 285 292 288 288 293 298 300 300 300 296 292 295 299 301 301 302 292 289 291 294 295 297 297 298 298 296 295 294 293 293 293 293 293 292 289 288 285 285 287 288 289 288 288 289 290 292 292 293 291 289 289 289 289 289 289 289 289 289 288 287 288 288 288 289 288 288 289 289 289
282 282 280 281 284 285 284 282 282 278 287 290 289 291 291 287 286 290 287 289 288 287 288 289 294 297 296 293 296 299 300 301 300 297 290 290 289 291 294 294 295 294 294 292 291 289 289 290 291 292 291 289 286 285 285 287 288 288 287 288 290 291 292 292 290 289 289 289 288 288 288 288 289 289 289 288 288 288 288 288 288 288 288 288 288 288
286 281 282 284 287 281 282 280 281 286 288 289 291 288 288 289 291 290 288 288 290 287 288 289 288 287 291 293 295 296 294 291 291 290 291 288 287 286 287 287 286 286 285 285 286 287 287 290 290 290 289 287 285 285 285 287 288 287 287 289 291 291 290 290 288 288 288 288 288 288 288 288 288 288 288 288 288 288 288 288 288 288 289 289 289 289
285 283 285 282 286 284 282 286 288 286 287 290 291 291 292 293 292 290 289 289 288 290 286 289 289 288 287 291 290 289 289 289 290 290 291 289 288 287 288 289 289 289 289 290 291 288 285 289 290 290 289 289 287 285 286 287 288 288 288 290 290 289 290 289 288 287 287 287 287 288 288 287 287 287 288 288 288 288 288 288 287 288 288 288 289 290
286 285 286 284 283 286 287 288 288 286 287 289 291 291 293 294 292 290 289 289 288 288 287 287 288 288 287 286 290 287 289 288 288 286 287 286 286 287 287 287 287 287 287 287 287 287 288 287 285 285 288 290 288 286 285 286 287 288 289 289 288 289 288 286 286 287 287 287 287 287 287 287 287 287 288 288 288 288 289 288 288 289 289 289 289 290
284 286 285 282 284 284 280 288 287 288 289 289 292 292 289 289 290 289 289 289 290 289 288 287 286 286 285 286 287 288 288 286 286 285 285 284 284 285 285 285 287 286 286 288 289 287 286 285 287 288 288 289 290 286 285 285 286 288 289 288 288 286 286 286 287 287 287 287 287 286 286 287 287 287 287 287 288 289 289 289 289 289 288 289 289 290
281 287 285 284 284 282 282 287 287 289 289 290 292 290 289 290 291 290 288 288 288 287 286 286 285 287 285 287 286 287 288 285 286 287 286 286 285 285 285 285 285 286 286 284 285 284 283 284 286 287 287 288 290 287 286 285 286 287 287 287 284 283 284 286 287 287 288 288 287 286 286 287 286 287 287 287 288 288 288 289 289 289 289 289 290 290
285 288 281 285 283 285 286 286 287 287 288 289 289 289 290 291 290 290 290 290 288 288 288 287 286 287 286 288 286 286 287 287 285 284 285 285 285 285 286 285 284 284 285 286 286 283 286 286 287 287 287 288 289 287 284 286 286 286 286 286 283 282 285 287 286 287 286 286 286 286 286 286 287 287 287 287 288 289 289 289 289 289 289 290 290 291
284 281 284 284 280 281 282 284 286 283 283 287 288 289 289 288 288 290 290 290 290 288 288 288 288 287 286 285 285 286 286 287 286 285 286 285 285 284 285 285 284 284 285 284 283 283 283 283 283 286 287 288 288 286 286 286 286 284 283 282 282 283 286 286 285 284 286 286 286 286 286 286 286 286 286 287 287 288 288 287 288 289 290 290 289 289
283 283 285 282 282 281 285 286 287 288 286 289 289 288 288 288 288 289 289 289 289 289 288 287 288 288 288 288 286 285 286 287 288 287 287 287 288 286 285 284 285 286 286 284 283 285 284 284 283 282 283 286 286 285 284 285 286 283 280 280 281 283 285 283 285 285 285 285 286 286 286 286 286 286 286 286 287 287 287 288 288 288 288 289 288 289
Wind_Speed
9 12 13 15 17 23 22 20 14 2 6 6 7 6 8 7 5 2 3 1 4 2 9 11 12 17 12 8 12 13 1 4 7 9 9 8 8 8 9 10 11 11 15 10 11 12 10 10 10 10 8 9 8 9 10 10 12 12 13 11 13 11 10 10 10 9 10 10 8 8 11 12 9 9 9 9 9 9 9 9 9 9 9 9 9 8
12 12 16 21 21 16 14 10 5 1 7 11 9 9 9 9 11 5 5 1 1 4 3 7 8 15 14 10 12 5 2 9 13 13 11 12 12 11 11 12 12 14 7 6 8 9 6 8 9 8 9 9 11 12 11 13 15 14 14 13 13 9 11 12 12 10 10 10 11 10 10 9 8 8 9 10 8 9 8 8 8 8 8 9 8 8
12 17 20 26 17 9 7 9 9 11 5 7 9 8 7 9 1 1 2 0 1 2 8 2 6 14 15 13 13 8 10 13 13 12 14 12 13 12 11 12 11 8 10 9 12 9 8 9 8 9 10 11 13 12 14 14 12 12 12 13 11 11 11 11 11 10 12 11 9 9 6 9 7 6 8 8 8 7 8 8 8 8 8 8 8 7
12 16 26 15 12 13 10 11 9 8 4 6 6 8 11 5 7 7 1 1 2 4 1 1 4 12 11 6 11 11 11 15 13 12 14 11 14 14 14 13 12 13 12 12 13 13 11 10 10 9 10 12 10 12 11 11 13 11 12 11 12 12 11 10 12 12 11 9 7 6 5 5 7 6 4 6 5 6 6 8 8 9 8 7 7 6
20 17 15 10 13 14 13 11 13 11 10 6 9 9 4 7 8 5 3 1 0 2 1 3 8 12 12 10 9 10 13 13 10 8 11 13 12 11 9 7 10 13 12 13 14 11 9 9 11 13 14 11 12 13 13 13 13 11 15 15 14 13 12 11 11 12 9 6 5 4 2 1 2 2 2 4 8 8 6 7 8 9 6 7 7 6
16 1 17 14 17 16 14 12 14 12 10 7 5 10 7 6 5 4 4 5 0 3 3 2 5 11 6 13 16 14 4 8 8 9 15 17 13 10 12 15 11 10 11 13 15 15 13 13 11 9 9 10 12 13 14 13 14 14 13 13 13 11 10 11 12 12 10 10 10 8 8 9 8 9 8 12 12 8 9 11 7 6 8 8 8 8
12 5 16 17 13 14 12 12 14 13 12 10 9 6 9 8 7 7 4 5 3 7 2 1 11 9 3 7 8 7 5 13 4 8 16 12 11 9 12 12 13 14 14 12 12 11 8 10 9 11 11 13 14 15 12 12 13 13 12 12 14 13 12 12 11 12 11 10 10 13 14 13 12 12 11 9 5 8 8 6 8 8 7 9 10 9
6 8 8 12 16 15 14 15 13 18 13 11 6 11 8 8 10 7 7 8 4 1 2 0 3 7 13 12 7 5 6 11 8 13 14 11 9 10 10 12 14 15 14 13 13 14 13 9 10 14 15 13 16 13 9 11 11 14 15 14 14 12 12 11 11 12 13 13 12 12 13 11 11 13 14 8 8 6 5 7 9 7 7 8 9 9
17 13 16 17 16 15 18 18 14 15 11 2 8 14 8 11 5 7 6 4 1 1 8 4 0 3 9 5 1 5 6 10 13 15 16 11 11 11 13 14 15 14 12 11 12 14 14 14 14 14 13 13 11 9 11 13 14 14 14 14 13 13 12 11 13 13 14 14 14 13 12 11 12 12 10 5 6 7 7 8 7 8 8 8 8 9
1 15 16 18 15 16 11 6 10 15 12 1 5 12 9 10 6 6 5 6 1 1 12 8 7 8 14 11 6 1 4 13 17 19 15 9 11 13 14 13 13 11 10 11 14 14 13 12 12 11 8 5 10 11 12 11 10 11 11 12 13 14 12 12 13 14 15 15 12 12 13 15 14 10 7 6 8 7 7 9 8 7 7 7 7 7
0 2 9 10 12 5 6 7 12 13 5 11 7 11 6 7 4 3 5 2 2 7 16 9 11 10 13 11 13 10 12 15 18 8 4 5 7 10 10 10 11 11 12 12 12 12 12 8 6 6 10 12 9 8 8 10 10 10 11 12 14 15 12 12 14 14 15 14 14 14 15 16 16 13 10 8 10 8 7 9 8 8 7 6 7 7
2 8 5 3 9 3 12 4 3 7 11 7 6 6 8 2 4 4 2 2 5 11 7 14 13 13 13 9 8 10 8 13 13 13 14 9 10 11 9 11 11 11 11 9 7 10 9 7 7 5 9 10 10 7 10 11 10 10 11 11 14 13 13 11 12 13 14 13 15 14 15 16 16 13 11 13 14 11 11 9 8 6 5 6 6 6
4 11 6 6 2 21 9 13 1 6 10 5 8 2 14 5 4 4 2 4 9 14 2 2 13 2 21 11 5 1 9 6 7 13 13 9 10 12 11 11 10 8 6 7 8 8 7 9 9 9 11 9 9 11 12 13 12 12 12 13 14 15 13 13 12 14 15 14 15 15 15 15 14 13 13 13 13 9 10 8 7 7 8 6 7 8
5 1 7 4 3 5 18 15 7 8 10 9 11 9 5 4 6 7 7 1 4 2 1 3 5 11 13 6 12 18 13 11 10 10 8 9 12 12 8 6 6 6 6 7 7 7 8 8 8 9 10 11 10 11 12 12 11 11 11 13 14 16 14 13 13 15 14 16 15 14 14 14 12 12 12 12 12 10 8 7 9 9 9 8 10 9
9 8 9 14 9 10 16 17 18 13 16 15 9 12 8 6 5 12 7 12 8 3 1 3 8 9 4 6 4 6 9 8 8 11 7 6 7 6 1 3 5 6 6 6 7 9 10 10 9 8 8 9 9 10 11 9 11 10 11 12 14 14 13 13 14 13 15 14 13 13 13 13 10 11 11 11 10 8 8 8 9 9 8 9 8 9
22 8 8 23 9 21 18 14 16 12 6 4 4 5 5 12 4 3 1 1 1 2 1 2 8 2 7 3 8 6 5 7 5 7 4 9 8 6 7 9 10 9 9 8 9 10 11 10 7 6 7 9 9 9 8 9 10 11 12 12 15 16 14 14 14 14 15 14 12 13 13 13 12 10 9 8 7 8 9 8 9 9 9 9 8 7
3 12 10 7 10 19 18 11 8 16 13 7 7 13 8 2 8 5 2 1 2 3 10 3 7 10 8 14 16 14 4 8 6 6 6 9 8 5 10 13 9 8 9 8 9 10 10 7 7 8 8 7 7 7 10 11 11 13 13 12 13 12 10 11 12 13 12 12 12 13 13 11 11 11 12 12 11 10 7 8 8 8 9 7 8 7
17 10 9 15 12 17 15 16 13 15 3 9 11 8 4 4 4 4 8 3 1 5 7 4 12 9 3 15 2 18 12 9 7 9 8 7 6 7 12 11 8 9 10 7 7 8 8 7 7 7 7 8 10 11 10 12 11 11 12 12 13 11 12 11 11 12 11 12 12 11 12 12 12 12 12 10 9 7 7 7 7 7 7 9 8 8
5 4 2 13 17 7 6 13 8 2 3 12 13 10 13 5 8 1 1 8 2 7 9 3 5 7 11 15 2 1 10 9 11 8 6 8 9 12 11 8 9 11 9 9 10 9 9 8 9 9 9 8 8 8 9 8 7 6 6 7 9 12 12 12 10 9 9 9 10 10 12 12 12 10 9 8 8 7 9 10 9 9 10 6 7 7
1 4 1 2 8 8 10 14 14 10 3 1 6 8 0 3 7 9 8 1 3 10 2 14 6 16 11 8 8 6 8 11 11 9 10 12 10 8 8 10 10 9 10 10 9 9 9 9 9 9 9 9 9 8 6 5 4 7 7 6 6 5 4 5 7 7 9 9 9 10 8 9 9 9 9 9 9 9 10 10 9 9 7 9 7 8
7 2 6 1 3 14 12 10 16 18 14 6 9 8 3 4 1 1 2 10 7 9 12 12 10 11 9 7 10 12 10 10 12 13 12 12 9 7 7 8 9 10 9 9 8 8 8 9 8 7 5 4 3 3 4 5 7 6 4 5 5 8 7 7 8 7 9 8 10 10 11 10 8 10 9 9 9 10 10 9 8 9 8 5 9 8
3 6 9 4 7 12 9 15 23 27 24 18 18 19 21 19 11 14 13 1 4 5 5 5 19 11 2 7 11 13 15 15 13 13 12 7 6 7 8 9 10 9 9 8 7 6 7 7 6 4 2 2 4 4 5 5 4 5 6 7 6 5 6 7 7 9 10 9 9 10 10 9 8 9 8 9 9 10 10 9 9 7 5 9 9 8
6 3 7 10 10 14 12 9 2 11 15 14 15 13 12 9 5 9 14 7 2 6 2 2 5 17 7 9 10 9 8 10 5 1 6 5 5 6 7 6 5 7 9 6 6 6 7 6 3 2 3 4 5 5 5 5 6 7 6 6 6 8 9 9 9 8 7 7 8 9 9 9 9 8 8 10 9 10 10 8 6 6 9 9 7 6
7 3 8 2 1 3 5 1 2 1 10 8 4 2 10 12 13 11 10 4 9 5 9 7 10 15 2 6 10 10 5 4 2 2 6 6 7 8 6 8 7 6 8 6 5 6 7 5 3 3 5 4 4 5 5 5 5 4 5 6 6 9 9 7 7 7 7 7 9 9 8 8 7 8 8 10 9 9 7 6 6 6 8 7 5 7
7 4 11 8 5 1 3 3 1 3 2 8 9 10 10 12 15 2 5 2 4 9 10 8 17 21 3 6 3 1 2 4 6 4 4 5 7 6 7 8 7 6 6 6 7 7 6 6 7 8 6 5 4 4 4 5 5 5 6 5 8 8 7 6 5 6 7 7 8 7 8 7 7 9 9 9 7 7 6 7 7 6 7 6 6 5
9 8 16 15 15 11 10 12 13 9 16 10 14 17 14 18 19 9 15 4 11 9 14 13 14 19 4 1 1 1 0 3 7 7 1 4 7 7 7 8 7 5 7 5 7 7 8 8 6 5 6 4 3 4 4 4 5 5 5 8 6 6 6 6 5 6 6 7 8 8 8 8 7 10 10 8 7 7 7 7 7 7 5 6 7 5
2 2 10 12 18 21 21 21 22 23 16 17 18 20 20 19 23 19 13 15 18 16 17 18 21 25 3 2 4 5 3 6 8 7 5 4 5 7 7 8 6 7 6 6 6 6 6 7 11 9 5 3 2 2 4 4 5 5 6 6 6 6 5 5 6 6 7 7 8 7 8 8 10 8 7 7 7 6 6 7 6 7 7 6 7 7
2 5 11 14 16 13 5 2 2 11 18 22 24 26 25 23 21 21 17 19 18 15 17 11 22 21 16 1 3 5 6 5 6 7 7 5 6 7 6 4 6 6 6 5 5 7 10 10 6 5 5 3 3 2 3 4 5 6 7 8 6 5 5 5 6 7 7 7 7 8 9 9 6 6 7 6 6 7 7 6 6 6 6 6 8 8
6 9 12 10 17 16 1 3 10 11 15 18 23 22 23 21 19 20 22 21 17 14 19 24 25 22 19 5 4 9 9 9 9 9 8 4 3 4 4 4 5 6 5 5 8 7 7 8 6 4 3 4 3 5 5 4 5 5 5 6 5 5 8 6 7 7 7 7 8 10 8 6 6 5 6 6 7 7 7 7 7 6 7 7 7 7
6 8 10 9 15 15 6 1 4 13 12 15 18 19 21 24 26 26 26 27 25 19 22 27 17 16 18 14 10 9 8 9 4 3 3 2 4 3 2 4 5 5 5 7 7 7 6 6 5 5 3 4 5 5 5 6 7 8 8 8 6 6 6 6 7 8 8 9 10 6 6 6 6 7 7 8 9 8 7 7 7 7 7 7 6 6
13 10 11 9 11 16 13 6 4 9 11 16 18 18 17 17 18 21 21 20 17 17 18 20 20 22 20 11 12 6 3 1 1 5 3 4 3 4 3 4 5 6 6 6 7 7 5 4 5 5 5 7 7 7 7 8 7 5 6 7 7 8 6 6 7 8 9 11 7 6 6 7 8 7 9 9 7 7 7 8 7 7 7 7 6 6
12 6 8 7 9 13 11 14 10 6 13 18 20 19 17 16 17 16 18 20 18 22 26 27 23 20 22 9 6 7 8 8 8 8 5 6 5 5 5 6 6 6 6 6 6 4 5 5 5 7 9 10 9 8 7 8 8 6 10 9 9 6 6 7 8 9 9 6 5 7 8 8 8 9 9 8 9 8 7 7 7 8 8 7 7 6
10 8 9 10 9 10 5 14 17 12 9 15 18 19 21 21 22 24 26 27 25 24 22 21 23 27 19 7 5 7 14 17 15 10 7 9 7 6 9 9 8 6 6 7 6 6 6 7 7 7 8 8 9 9 12 10 6 10 12 8 5 5 7 9 8 7 7 6 7 8 8 8 10 9 9 9 7 7 7 8 8 8 9 9 6 5
10 13 10 9 12 10 8 9 10 11 19 15 9 19 24 25 26 25 25 27 28 21 20 22 24 10 8 9 14 18 16 19 17 10 5 7 8 8 10 9 9 9 7 7 8 8 8 6 6 8 11 11 10 10 8 8 10 9 4 4 5 8 8 8 8 8 9 7 8 8 9 9 9 9 8 7 7 7 8 9 10 8 6 5 6 8
10 11 11 6 7 12 6 6 9 21 16 4 14 20 24 26 26 28 27 28 25 22 20 21 20 24 21 18 19 13 7 9 7 8 11 11 10 10 11 11 11 10 10 10 10 10 10 10 10 11 11 11 11 6 4 6 6 4 3 4 6 6 7 9 9 9 9 9 9 8 9 10 10 9 8 8 8 8 9 10 8 8 8 8 9 9
1 8 7 8 4 1 6 10 13 10 6 10 15 12 15 19 17 14 19 19 21 23 25 28 32 32 27 20 4 2 6 9 7 8 12 16 18 18 16 13 11 9 10 11 12 13 11 11 12 10 11 7 3 5 5 6 6 7 8 6 7 7 8 8 9 10 8 9 10 11 11 10 10 9 8 9 9 9 10 10 10 10 8 7 7 6
10 2 2 7 9 14 13 13 15 4 2 11 9 6 10 14 15 19 19 28 33 28 26 27 30 29 22 7 4 5 3 4 3 10 13 17 19 18 18 16 12 11 11 13 13 13 10 7 8 12 7 5 6 6 8 6 7 8 6 7 7 7 8 8 10 11 12 12 11 12 11 11 11 11 10 9 10 11 12 12 11 9 7 8 8 8
8 11 5 2 5 11 14 14 10 12 19 11 7 6 15 19 23 23 22 23 18 19 15 17 23 26 25 20 13 5 7 4 10 15 18 19 14 10 8 10 11 11 14 16 15 8 9 12 12 7 8 9 6 8 5 5 6 5 5 6 6 7 8 8 12 12 11 13 13 13 12 12 12 12 11 10 13 15 13 9 6 8 9 11 10 10
1 2 3 9 3 1 11 15 13 15 12 6 14 14 16 17 19 12 12 21 11 9 20 22 27 31 29 21 9 11 7 8 18 21 18 12 9 10 11 8 9 13 16 17 15 12 13 16 15 12 7 6 9 4 4 6 6 6 8 8 7 7 7 10 12 11 13 15 15 12 11 10 11 11 12 13 15 13 11 12 11 7 7 8 7 8
5 4 4 7 9 6 3 6 13 2 3 4 3 3 8 12 8 7 16 19 17 17 15 22 27 30 27 17 13 13 14 16 20 24 3 16 16 15 15 17 18 17 15 12 12 14 14 12 9 8 10 11 10 1 6 5 6 8 9 9 6 7 10 13 16 17 15 12 7 6 8 8 11 11 12 14 12 8 9 5 6 8 9 7 6 6
5 2 7 13 10 13 14 9 4 4 4 3 4 7 4 12 12 17 24 8 13 21 13 15 21 27 24 7 14 14 18 22 24 9 11 9 12 13 15 16 17 17 18 18 17 12 9 11 11 13 15 10 1 3 4 6 6 8 8 6 6 10 13 15 14 10 6 5 6 9 10 9 10 12 12 9 7 6 5 6 7 6 7 8 6 6
1 3 2 5 10 11 9 10 11 4 2 1 7 3 3 11 15 19 0 6 9 9 12 19 22 16 3 15 13 15 18 19 20 3 5 8 12 13 15 15 14 11 8 8 6 3 6 9 9 10 11 7 3 4 5 6 7 8 7 7 11 14 14 13 13 7 5 6 7 6 8 10 9 8 8 5 6 7 8 5 6 6 6 6 6 8
8 8 8 10 5 3 5 7 5 9 2 7 3 1 3 3 4 3 7 7 4 6 10 9 3 6 9 13 16 17 18 17 13 8 6 5 4 6 9 10 10 8 8 6 6 3 2 6 9 11 10 5 3 5 6 7 8 8 7 10 15 13 12 13 8 6 7 7 7 8 8 8 10 10 7 7 7 6 6 5 7 7 7 8 8 9
2 2 2 5 4 7 7 9 6 2 1 3 1 7 2 5 4 3 1 7 6 5 9 9 8 4 1 5 11 12 6 4 5 2 0 4 5 5 5 5 4 4 3 2 3 5 4 7 7 8 7 5 5 6 7 9 9 8 9 15 14 10 10 9 6 7 7 7 8 8 9 8 8 8 8 9 8 7 7 7 7 6 7 7 8 8
2 3 3 2 1 2 2 1 1 0 0 2 4 2 1 3 3 3 2 3 4 7 4 7 8 9 5 1 1 2 3 4 4 4 4 5 5 5 6 6 6 6 6 6 7 5 4 7 9 7 8 8 7 6 8 8 10 10 11 11 9 10 12 9 6 6 7 7 8 8 8 7 8 8 8 8 9 10 9 8 8 8 7 8 9 9
2 3 2 0 4 3 3 6 2 2 2 3 1 0 1 4 6 4 3 6 4 4 4 5 8 8 7 5 4 2 1 3 1 2 3 3 3 4 3 4 5 5 5 5 6 6 6 5 4 5 8 12 7 5 5 6 8 10 11 6 6 9 6 4 5 6 9 7 7 8 6 8 7 8 9 9 9 9 9 10 10 9 8 9 9 9
2 2 1 1 5 1 2 0 1 1 2 3 2 3 3 3 3 4 5 4 7 7 8 5 5 5 4 5 4 4 5 2 4 3 1 2 3 4 4 4 5 4 5 6 7 3 4 3 5 8 8 9 9 4 6 7 8 11 10 8 6 5 4 5 6 7 6 8 8 5 6 8 7 7 7 8 8 8 8 9 9 10 10 10 11 11
1 3 3 3 1 1 2 4 3 2 2 2 3 4 5 8 10 7 4 4 3 3 2 5 5 6 4 6 5 5 6 4 5 6 5 5 4 4 4 4 5 6 4 4 5 4 4 4 6 7 6 8 12 5 4 6 9 9 8 8 4 3 4 6 7 9 9 9 7 7 7 8 10 10 8 9 10 10 9 9 10 11 13 14 15 14
1 2 3 2 3 5 3 3 4 3 3 6 5 1 1 4 6 9 9 8 5 6 7 6 4 4 4 6 5 5 6 7 5 4 5 5 5 5 5 5 5 4 5 8 6 3 5 5 6 7 7 10 9 5 5 6 7 6 7 7 5 4 5 7 6 7 6 6 6 8 8 8 8 9 9 9 9 10 10 12 12 13 11 9 7 9
3 3 3 2 1 1 2 1 4 3 2 2 1 2 3 3 3 6 11 11 9 9 8 9 7 5 4 4 5 5 6 6 6 4 5 4 5 5 5 5 5 5 6 5 4 5 7 7 5 8 9 11 8 6 7 9 7 5 5 5 5 5 7 7 5 5 7 6 7 7 7 8 8 8 8 8 9 9 8 9 11 10 10 9 10 13
6 6 7 6 5 3 3 1 2 2 1 1 4 2 1 2 4 7 9 10 9 7 7 8 10 9 7 6 4 4 6 5 7 4 5 5 5 4 3 4 5 6 5 5 6 7 6 8 7 6 9 11 8 7 7 9 9 5 4 4 4 6 6 5 5 6 6 7 8 9 8 7 7 7 7 7 7 7 8 7 9 13 15 13 11 14
Wind_Direction
145 167 184 201 203 199 202 202 203 161 180 123 136 165 190 195 252 286 267 250 199 137 217 216 226 243 249 229 243 250 192 231 254 240 237 241 239 236 236 230 230 231 236 234 230 233 223 216 215 218 213 216 213 212 206 207 210 208 207 198 209 202 195 192 193 195 193 197 202 213 212 215 208 212 213 217 217 215 217 213 211 210 212 210 211 211
160 184 203 209 211 201 200 204 186 130 129 152 164 174 197 179 226 205 203 258 279 178 264 234 246 255 255 252 250 243 170 249 244 247 236 236 235 234 230 233 230 233 249 258 256 241 229 220 213 206 210 205 209 215 205 208 208 208 206 205 209 195 198 201 199 196 196 200 201 199 209 207 208 208 210 222 218 219 220 217 214 214 212 212 211 205
181 201 209 210 197 193 189 198 198 199 154 160 172 178 177 219 170 319 210 21 214 148 263 231 223 253 254 245 253 235 226 240 237 232 237 229 235 237 233 235 239 243 245 238 242 242 224 222 213 203 209 211 213 214 210 213 209 211 208 211 205 202 200 205 200 193 204 204 205 200 198 196 213 217 214 220 219 210 216 216 214 214 214 212 213 204
185 215 217 195 180 190 196 195 198 208 192 173 150 155 209 140 154 244 270 83 221 168 246 289 267 270 272 262 252 236 219 239 235 227 239 228 233 231 229 223 227 232 235 241 240 236 226 214 211 207 209 211 207 214 215 210 211 210 213 210 207 208 203 201 202 205 208 203 198 204 195 201 202 203 211 222 225 217 213 221 213 217 213 208 210 199
198 214 195 151 182 192 190 188 191 195 213 206 192 201 156 161 204 178 218 90 281 311 90 314 288 279 255 262 258 243 228 244 250 234 248 248 235 237 244 244 225 228 224 234 244 240 229 216 215 209 210 202 206 211 211 206 206 208 209 207 205 206 203 202 200 203 197 176 175 183 154 113 231 277 212 209 232 218 215 223 217 220 203 209 210 199
218 145 128 176 185 188 186 186 192 189 214 209 234 207 179 141 144 134 112 129 83 295 211 140 307 255 255 229 237 244 165 232 229 220 238 239 235 223 233 236 236 234 228 223 232 232 221 218 221 217 212 206 212 214 213 205 208 207 209 205 205 205 203 203 201 196 186 190 185 173 189 207 212 221 210 219 220 202 211 219 208 204 199 203 206 203
209 186 170 181 163 179 188 198 192 182 202 202 212 168 155 158 145 140 145 111 229 234 279 155 224 272 316 253 244 241 209 241 238 212 239 237 234 223 227 230 231 229 233 234 242 244 232 224 217 220 212 210 213 219 206 205 209 208 209 204 203 204 204 201 197 186 186 192 194 197 203 208 207 217 228 223 207 206 213 203 205 206 193 199 204 208
148 176 165 157 165 173 189 203 191 184 188 216 131 135 137 138 151 164 152 190 223 303 323 186 203 261 282 259 213 216 211 248 248 249 247 238 233 229 228 229 231 230 228 228 229 236 236 228 210 218 215 211 216 214 197 206 205 206 207 203 203 203 203 199 191 186 188 194 198 202 208 211 215 216 229 199 211 204 192 197 207 197 200 197 202 205
182 177 175 168 169 180 196 201 177 181 186 216 154 130 135 136 137 144 149 177 232 60 260 173 32 292 238 270 34 133 224 254 251 242 242 233 232 233 231 230 232 233 233 225 230 232 229 223 220 220 218 216 216 205 201 206 207 206 206 205 203 204 201 198 189 189 192 198 197 200 202 212 222 222 228 190 196 203 193 208 199 200 200 198 200 202
186 184 183 171 172 198 198 172 144 168 192 299 104 86 97 92 80 103 128 131 311 121 243 195 176 237 268 253 214 331 217 237 244 239 239 225 218 223 231 235 235 235 233 228 230 234 234 230 230 225 231 217 213 211 211 211 207 208 205 205 203 207 200 197 192 191 195 197 195 199 204 211 220 216 217 187 206 205 192 212 204 199 197 199 199 202
171 24 151 165 191 173 104 132 163 176 125 131 95 106 75 52 78 60 70 111 73 248 244 180 194 194 278 236 233 173 209 213 237 255 266 233 230 235 232 229 229 229 229 230 230 237 241 240 236 216 216 223 218 210 203 208 208 206 203 203 204 209 202 196 195 191 195 195 196 203 205 210 218 212 205 205 219 208 197 212 204 199 201 191 201 192
77 105 142 232 146 113 120 68 11 129 142 133 137 134 95 21 50 50 6 67 206 253 230 168 184 180 236 259 213 212 209 216 221 240 237 224 224 229 226 227 227 225 228 230 227 241 242 252 247 224 231 226 222 203 205 209 205 203 203 200 207 209 204 197 195 194 198 195 202 206 207 211 217 210 205 210 220 208 211 209 205 192 186 200 193 194
144 169 167 141 194 141 141 128 260 125 142 123 84 144 166 179 132 210 107 219 205 234 345 325 138 211 234 229 321 307 257 254 221 227 231 218 225 229 227 224 225 224 228 225 227 233 235 230 227 223 230 228 220 210 208 207 202 202 202 199 202 208 200 198 193 197 197 198 203 205 208 214 215 212 211 216 222 209 210 203 199 183 200 184 196 198
207 254 163 125 106 216 145 164 145 160 174 152 157 152 165 158 164 200 189 251 293 353 287 110 178 236 259 307 230 243 241 226 231 237 236 212 222 229 221 222 239 239 224 228 229 236 240 233 230 223 225 225 222 216 211 207 201 201 202 201 203 210 196 197 196 198 198 204 205 204 209 213 211 213 212 218 220 211 205 191 201 198 197 195 203 196
157 195 206 146 199 175 181 178 174 170 169 188 167 173 187 183 176 206 181 206 216 219 359 240 125 233 125 247 328 259 263 259 236 232 231 244 250 258 254 233 248 257 247 229 235 232 234 238 230 226 224 229 225 219 214 205 203 199 203 201 207 209 201 197 199 197 203 206 205 206 210 213 210 213 211 219 217 205 197 196 198 201 196 201 202 201
195 198 190 183 166 173 187 178 168 145 147 188 160 62 202 221 100 192 198 276 266 177 230 218 209 206 202 271 301 243 278 276 272 266 263 261 255 262 270 248 235 232 240 231 233 239 240 239 240 233 229 228 225 220 213 207 202 201 205 203 206 206 199 197 197 200 203 205 203 207 208 211 210 211 213 219 210 209 200 197 196 201 197 203 199 202
166 227 150 161 149 178 185 153 173 144 189 170 142 208 198 54 104 81 36 13 72 47 250 142 299 272 318 284 253 273 216 266 269 266 256 248 251 258 254 254 251 241 239 234 232 239 244 244 238 230 229 226 221 215 209 208 201 202 202 202 207 209 203 201 201 204 202 205 204 208 209 209 208 209 210 212 211 206 194 193 198 199 202 198 200 198
174 193 166 155 178 192 177 161 165 178 119 133 200 193 73 95 87 157 218 16 64 221 264 127 231 264 58 274 184 208 229 241 253 247 242 247 243 239 245 252 251 250 245 240 241 243 244 242 240 235 230 221 214 211 212 212 206 206 204 202 202 200 201 203 199 202 201 202 206 208 210 212 210 211 214 213 210 194 188 200 199 196 199 205 198 195
107 56 246 194 172 154 113 132 171 204 316 178 188 154 158 208 227 302 131 217 196 244 260 244 239 263 205 239 47 265 235 234 242 243 235 248 239 234 245 257 253 253 263 255 243 237 240 234 233 228 227 226 224 221 218 218 208 211 214 209 203 204 204 202 200 201 204 203 205 208 209 209 212 212 212 210 203 183 196 203 199 201 208 196 193 194
199 142 123 267 157 136 149 162 188 177 282 2 78 166 50 126 215 173 193 72 126 246 319 257 127 253 194 224 162 238 222 227 241 254 250 234 233 237 244 244 245 248 245 250 248 237 228 230 226 221 220 219 219 220 226 220 208 215 212 202 210 212 199 193 195 191 201 202 203 211 210 215 212 208 208 204 194 197 205 207 200 206 203 205 187 200
175 131 165 172 178 149 178 185 183 171 179 159 168 176 194 213 307 99 211 191 166 216 227 265 267 252 238 176 175 206 215 214 211 224 238 250 248 236 239 238 248 247 244 244 245 245 232 231 234 231 228 230 235 227 212 204 210 213 196 211 202 198 199 199 198 189 204 193 207 207 208 208 199 205 204 202 199 204 210 209 205 207 206 173 205 196
115 183 177 135 190 192 181 190 187 183 182 182 181 189 188 178 173 184 225 150 205 201 228 203 251 253 270 193 187 202 212 217 205 204 231 234 249 246 233 235 234 247 248 240 241 244 245 244 244 252 239 210 208 220 205 213 200 200 202 206 197 199 204 197 199 199 201 199 204 205 208 205 202 204 198 200 201 208 211 210 208 200 176 203 208 192
159 147 125 180 189 190 198 202 259 198 188 192 187 204 191 191 179 196 207 208 46 241 99 209 325 270 178 176 197 199 220 240 260 325 282 280 242 236 257 256 259 244 257 257 252 247 249 250 245 219 210 206 200 200 191 193 195 200 205 196 199 196 211 200 205 201 196 197 199 207 208 203 204 196 198 202 207 210 211 208 199 182 199 209 205 199
57 104 123 76 16 346 6 346 44 25 194 201 221 66 169 195 194 204 213 182 197 191 221 234 254 262 236 204 191 200 216 275 297 188 245 275 285 294 290 288 275 273 260 263 264 268 261 264 259 263 246 222 216 204 201 199 195 197 197 200 192 208 212 205 205 194 193 199 207 208 204 207 201 195 203 207 209 209 207 195 198 194 206 207 194 200
170 222 155 156 165 167 14 12 191 9 136 206 196 199 192 189 197 187 81 76 203 206 219 198 239 258 189 190 180 209 145 278 251 227 184 252 277 272 282 281 280 273 284 277 265 259 279 280 256 238 220 213 209 200 189 193 197 196 207 196 204 215 209 205 192 189 198 198 207 206 205 207 195 203 208 212 204 208 194 199 199 195 203 192 198 194
209 162 170 178 176 176 186 185 186 167 198 199 205 197 196 186 187 155 214 166 227 209 199 219 244 247 11 348 213 243 234 288 279 282 274 209 250 269 266 267 275 277 267 271 275 282 258 248 266 271 246 229 213 200 189 193 198 206 209 216 210 207 201 204 188 195 190 198 200 206 205 204 200 209 209 204 202 201 195 194 195 193 196 186 192 179
196 209 209 204 196 196 193 195 195 179 173 189 195 195 196 198 194 197 199 203 212 216 214 217 225 245 230 279 237 232 212 213 245 258 264 281 262 251 252 264 273 278 274 263 251 261 292 284 250 241 253 238 237 206 199 193 201 206 212 224 219 212 198 191 183 194 196 199 204 202 207 202 207 203 200 199 198 187 187 191 189 184 190 183 184 181
105 219 220 215 230 230 230 289 53 175 182 190 188 198 196 194 192 196 197 214 209 218 239 231 238 246 232 202 268 234 223 249 260 261 266 265 255 240 241 259 275 278 273 274 270 251 240 248 267 260 247 252 256 241 229 220 213 209 205 216 213 201 193 186 184 192 200 193 203 208 209 208 199 194 196 189 184 189 190 184 184 189 181 177 186 186
158 216 221 223 236 237 150 158 147 177 201 199 202 194 193 189 190 197 215 223 210 215 226 229 227 233 243 202 224 220 196 204 204 220 218 204 244 246 245 260 269 268 277 270 255 251 247 250 253 270 265 248 241 243 234 224 233 235 239 235 217 196 205 184 181 191 193 196 205 212 202 192 191 181 180 182 187 190 190 187 183 180 181 185 187 183
148 224 230 210 242 248 227 303 172 168 192 206 209 204 196 191 194 198 210 215 213 217 223 238 238 238 243 222 209 223 210 214 216 222 287 192 222 222 236 247 247 257 256 251 250 253 255 259 280 279 272 254 235 238 233 229 225 219 218 224 211 207 205 167 195 187 196 204 212 198 186 184 178 180 179 187 193 194 185 181 179 178 181 187 183 177
173 212 190 206 236 243 234 250 268 194 183 208 210 207 201 200 203 210 218 226 230 242 249 255 252 252 245 211 210 216 203 145 349 288 274 291 315 285 262 258 256 252 249 252 255 256 259 266 257 259 253 248 235 230 226 228 228 222 229 230 211 211 194 180 195 202 201 213 199 183 176 178 183 178 191 195 190 186 183 181 176 179 181 180 175 174
184 201 160 196 220 236 214 212 223 234 203 206 207 202 196 189 201 209 219 219 211 218 229 239 246 248 252 204 179 193 214 222 223 230 230 259 247 259 265 265 261 260 259 257 261 256 252 248 247 236 237 235 228 227 228 232 227 207 231 220 214 201 168 190 205 207 213 209 180 183 183 186 178 188 196 188 194 183 179 172 177 185 185 179 182 183
188 186 184 183 217 238 211 203 215 212 221 221 211 194 192 197 200 205 214 216 213 211 220 228 238 235 247 91 156 215 207 221 224 215 217 232 237 220 238 242 243 247 255 256 259 258 245 236 235 235 245 245 227 216 224 216 203 221 227 221 204 151 184 199 204 209 213 203 192 191 189 184 186 194 193 196 183 176 173 182 187 191 189 196 185 170
176 198 208 161 216 223 185 192 210 217 222 215 184 198 192 196 199 205 214 218 219 208 221 222 235 247 82 148 200 219 203 213 217 219 195 197 228 231 239 241 238 235 239 251 246 247 254 260 254 240 232 234 236 223 221 186 209 228 211 189 162 181 191 193 209 207 209 199 201 196 192 191 193 197 195 180 179 177 184 190 202 196 191 177 179 198
182 193 215 181 215 223 171 141 214 228 226 134 201 203 198 202 200 207 215 219 221 220 231 246 252 251 219 218 222 230 195 222 230 210 228 228 221 226 230 230 234 233 235 240 244 241 237 230 234 237 239 237 236 234 190 214 217 229 199 167 181 194 193 199 199 208 211 204 202 195 197 198 197 196 186 182 181 184 194 202 201 195 195 191 197 197
109 206 186 218 203 102 193 186 225 245 139 186 212 204 205 208 207 216 240 242 232 222 217 228 235 236 234 230 237 93 178 208 217 229 221 226 230 235 237 237 234 220 229 233 236 245 230 212 217 229 246 249 211 218 187 209 184 193 215 179 191 193 203 200 204 209 204 211 205 202 201 196 197 193 185 183 184 193 204 205 202 200 190 192 201 199
168 125 354 246 184 222 217 217 221 350 95 200 208 204 166 194 194 196 218 230 221 218 210 224 236 244 249 242 205 192 147 100 202 245 231 223 225 226 231 243 247 235 229 244 243 255 273 277 273 264 264 262 223 209 212 202 183 197 188 191 206 193 200 195 210 214 207 212 209 206 201 196 194 193 188 185 190 203 208 204 203 201 181 192 199 194
177 194 151 175 266 218 222 231 230 220 235 211 219 198 189 202 205 207 215 243 230 219 214 225 243 249 244 231 217 132 124 149 249 247 228 221 214 225 236 234 245 261 268 271 277 281 281 274 269 277 261 262 249 226 208 181 192 182 193 216 207 199 204 201 219 217 210 214 213 209 200 195 191 190 187 187 201 208 210 204 201 200 185 194 193 199
295 224 177 199 243 316 229 230 228 230 235 184 214 202 201 202 209 209 222 241 236 180 203 210 226 235 236 228 184 130 144 212 244 250 240 171 193 210 220 233 233 233 235 239 243 247 248 253 253 259 269 251 258 236 165 181 171 170 204 212 206 203 209 217 227 218 213 217 214 206 194 191 192 192 191 198 210 206 200 199 200 187 179 199 195 202
179 190 134 201 211 210 309 259 241 255 282 201 6 312 245 200 170 141 228 232 236 222 197 210 221 233 237 221 145 174 196 228 237 249 177 150 184 195 196 215 223 227 236 242 237 229 236 249 268 276 265 254 251 147 179 164 170 194 210 217 190 197 215 225 226 223 217 218 192 181 189 194 195 197 197 207 209 200 205 183 175 187 189 194 194 188
189 195 194 214 213 227 222 256 300 307 293 295 299 312 246 145 157 202 222 218 228 243 209 218 223 231 235 185 143 204 214 222 235 235 125 163 178 196 206 215 219 218 222 228 235 231 234 246 245 245 250 260 237 166 162 164 176 208 216 204 186 218 223 229 234 237 236 232 198 176 187 193 200 203 209 207 197 183 178 184 189 176 184 190 188 184
96 156 215 199 221 219 221 228 246 252 235 326 280 247 250 138 214 216 167 353 329 336 179 210 225 235 220 146 182 216 227 227 243 184 145 175 193 187 204 214 227 238 244 243 267 263 238 253 261 268 275 271 232 193 171 170 193 216 209 201 219 224 228 232 234 219 207 206 212 215 188 187 201 206 205 193 172 181 195 184 174 182 180 180 185 191
187 172 195 193 192 221 192 228 225 242 231 167 189 359 1 262 300 11 323 307 359 339 339 322 311 226 169 181 200 219 229 233 235 228 207 222 201 216 219 224 228 238 255 285 296 290 243 259 258 261 265 278 227 210 188 179 207 214 205 214 228 228 230 235 225 200 204 203 202 200 208 205 188 190 185 189 189 186 192 177 179 183 177 183 190 194
263 158 208 205 189 195 190 207 204 265 102 283 181 166 150 174 268 331 338 312 334 0 352 345 356 352 74 190 218 234 270 335 334 5 195 243 234 248 278 296 312 324 315 271 222 237 214 238 255 266 272 256 228 206 192 183 212 213 206 226 230 226 235 237 215 203 207 207 203 202 202 196 196 189 178 181 177 186 187 187 187 184 189 191 193 196
309 158 332 221 329 175 207 111 20 346 83 305 26 93 133 276 295 272 258 266 302 341 338 355 349 347 357 91 195 252 291 262 229 220 208 224 214 216 238 246 235 239 236 242 255 233 203 228 246 252 268 261 239 221 204 200 206 218 218 234 219 221 227 223 206 198 211 212 209 209 203 184 185 183 184 184 177 184 190 189 181 192 195 192 200 200
62 106 242 24 283 255 247 231 311 343 15 36 344 267 40 341 329 343 331 334 302 306 338 338 323 337 347 338 16 348 357 301 289 307 297 294 261 261 270 289 286 276 278 286 277 256 242 255 267 270 267 275 255 231 223 219 211 223 231 237 222 226 225 193 189 207 218 218 214 212 188 188 189 186 187 186 188 194 190 188 187 195 192 197 204 206
206 156 108 162 277 329 297 229 97 301 18 87 72 346 14 359 328 344 335 333 325 335 334 348 337 321 322 334 10 349 344 339 355 335 309 274 283 272 270 265 268 271 271 271 261 287 292 262 265 262 261 272 278 224 226 218 225 229 243 239 234 221 193 187 196 211 218 219 217 200 185 192 191 191 192 192 192 194 194 192 192 194 197 196 200 205
327 185 134 224 221 92 241 61 287 317 316 343 11 22 2 350 337 342 321 310 315 328 329 321 334 344 349 353 337 345 338 341 8 357 353 350 318 307 307 304 301 317 290 251 277 282 284 258 248 262 264 263 271 263 230 231 236 240 249 257 257 202 185 198 202 207 216 216 198 192 189 199 195 189 193 195 192 195 197 201 198 201 203 198 198 197
118 102 180 185 173 257 313 311 304 332 344 53 65 355 49 337 339 329 334 342 356 13 350 336 5 318 332 328 333 340 352 342 359 352 346 324 335 332 325 312 307 288 299 319 321 341 283 296 294 282 285 278 284 312 284 257 249 243 241 244 232 200 199 217 211 216 220 208 187 202 197 199 198 199 197 196 199 209 204 198 199 208 219 221 213 213
101 193 193 100 8 271 199 353 10 56 323 32 70 22 31 346 11 338 326 335 346 354 354 349 350 2 352 330 327 330 337 329 337 354 335 316 307 304 317 324 319 318 310 300 311 312 311 298 292 295 293 286 290 299 292 284 272 247 236 226 206 192 212 224 212 210 222 204 206 208 197 206 206 204 199 197 200 204 221 224 219 214 215 218 208 219
181 200 163 189 174 191 151 111 162 143 289 227 172 160 132 274 3 335 317 312 325 338 352 354 348 350 1 352 343 332 322 318 321 320 317 313 308 301 299 304 311 314 309 320 337 318 318 306 309 304 291 281 292 291 286 287 286 276 249 221 198 189 211 203 215 225 224 206 214 206 201 201 202 203 203 205 202 202 212 216 224 221 217 218 208 209